Home > Weather > Singapore > Past weeks

Flag for Singapore Past Weather in Singapore, Singapore — Yesterday and Last 2 Weeks

Now
84 °F

Partly sunny.


Feels Like: 94 °F
Forecast: 78 / 89 °F
Wind: 8 mph from Southwest

Location: Singapore / Paya Lebar

Current Time: Jul 28, 2016 at 2:52:16 PM

Latest Report: Jul 28, 2016 at 2:00 PM


Visibility: N/A

Pressure: 29.80 "Hg

Humidity: 79%

Dew Point: 77 °F

Location of SingaporeLocation

Past Weather in Singapore — Graph

°F

Singapore Temperature Yesterday

Maximum temperature yesterday: 90 °F (at 1:00 PM)
Minimum temperature yesterday: 77 °F (at 5:00 AM)
Average temperature yesterday: 85 °F

High & Low Weather Summary for the Past Weeks

 TemperatureHumidityPressure
High91 °F (Jul 16, 2:00 PM)100% (Jul 20, 9:00 AM)29.89 "Hg (Jul 20, 9:00 AM)
Low75 °F (Jul 20, 8:00 AM)56% (Jul 16, 5:00 PM)29.71 "Hg (Jul 13, 5:00 PM)
Average83 °F80%29.80 "Hg
* Reported Jul 13 1:00 PM — Jul 28 1:00 PM, Singapore, Weather by CustomWeather, © 2016

Note: Actual official high and low records may vary slightly from our data, if they occured in-between our weather recording intervals... More about our weather records

Advertising

Singapore Weather History for the Previous 24 Hours

Scroll right to see more
 ConditionsComfort  
Time TempWeatherWind HumidityBarometerVisibility
1:00 PM
Thu, Jul 28
81 °FThunderstorms. Scattered clouds.7 mph84%29.83 "Hg4 mi
12:00 PM81 °FThunderstorms. Scattered clouds.10 mph84%29.86 "Hg4 mi
11:00 AM88 °FBroken clouds.6 mph70%29.83 "HgN/A
10:00 AM86 °FPartly sunny.7 mph75%29.83 "HgN/A
9:00 AM84 °FPartly sunny.5 mph79%29.86 "HgN/A
8:00 AM82 °FPartly sunny.3 mph84%29.83 "HgN/A
7:00 AM81 °FPassing clouds.1 mph89%29.80 "Hg6 mi
6:00 AM82 °FPassing clouds.3 mph84%29.80 "HgN/A
5:00 AM82 °FPartly cloudy.No wind84%29.80 "HgN/A
11:00 PM
Wed, Jul 27
84 °FPassing clouds.2 mph79%29.83 "HgN/A
10:00 PM86 °FPassing clouds.5 mph75%29.80 "HgN/A
9:00 PM86 °FPassing clouds.5 mph70%29.80 "HgN/A
8:00 PM86 °FPassing clouds.6 mph66%29.80 "HgN/A
7:00 PM88 °FPartly sunny.7 mph59%29.77 "HgN/A
6:00 PM88 °FBroken clouds.8 mph62%29.74 "HgN/A
5:00 PM90 °FPartly sunny.8 mph63%29.71 "HgN/A
4:00 PM90 °FPartly sunny.10 mph63%29.71 "HgN/A
3:00 PM90 °FPartly sunny.8 mph59%29.74 "HgN/A
2:00 PM90 °FPartly sunny.9 mph63%29.74 "HgN/A
Weather by CustomWeather, © 2016

See weather overviewHow to use our weather pages